Location: Newark
(39.0622°N, 106.5590°E)
Time: 13:37:28
(UTC+00:00)

UWE-3 - Pass Details

Date: 22 February 2020
Orbit: 585 x 682 km, 97.6° (Epoch: 30 March)

Event Time Altitude Azimuth Distance (km) Brightness Sun altitude
Rises 21:48:28 0° 20° (NNE) 3,039 ? -21.6°
Reaches altitude 10° 21:50:51 10° 29° (NNE) 2,126 ? -21.2°
Maximum altitude 21:55:12 38° 97° (E) 1,038 ? -20.3°
Drops below altitude 10° 21:59:31 10° 166° (SSE) 2,115 ? -19.5°
Sets 22:01:53 0° 174° (S) 3,021 ? -19.0°
